Погода в Пантеллерии

Италия     36°49′49″N   11°56′33″E
темп.,
°C
ветер,
м/с
пор.,
м/с
влажн.,
%
обл.,
%
осадки,
мм/ч
давл.,
гПа
погр.,
м
16 сентября, чт
чт1623:00+25ююв567998 0.0 1019189
02:00+25ююв568043 0.0 1019211
05:00+25ююв4681100 0.0 1018195
08:00+25ю698044 0.0 1018363
11:00+26ю610805 0.0 1019356
14:00+26ю610815 0.0 1019367
17:00+26ююв58844 0.0 1018260
20:00+26ююв688568 0.0 1017215
17 сентября, пт
пт1723:00+26ююв67845 0.0 1018186
02:00+26ююв458381 0.0 1018140
05:00+26ю69835 0.0 1015202
08:00+26ю610845 0.0 1015230
11:00+26ю58859 0.0 1015190
14:00+26ю6108328 0.0 1014246
17:00+27ююв6881100 0.0 1013156
20:00+26ююв4681100 0.0 1013102
18 сентября, сб
сб1823:00+26вюв338135 0.0 101438
02:00+26ююв7108013 0.0 1012175
05:00+26зюз3584100 0.0 1013106
08:00+25юв118438 0.0 101312
11:00+26ююз128299 0.0 101424
14:00+27ю0181100 0.0 101337
17:00+27в3379100 0.0 1011115
20:00+26всв11823 0.0 101215
19 сентября, вс
вс1923:00+26сз22805 0.0 101420
02:00+26вюв117993 0.0 101313
05:00+25с12805 0.0 101320
08:00+25с22785 0.0 101421
11:00+25ссз22795 0.0 101555
14:00+26с22740 0.0 1015170
17:00+26ссз23730 0.0 1014212
20:00+25с22780 0.0 101537
20 сентября, пн
пн2023:00+25ссв22763 0.0 101525
02:00+25ссз127453 0.0 101515
05:00+25зюз11730 0.0 101512
08:00+25всв117239 0.0 101511
11:00+26юв227083 0.0 101628
14:00+26юв226692 0.0 1015106
17:00+26юв236854 0.0 1013162
20:00+26в337512 0.0 101334